Hourly Data Report for October 30, 2013

All times are specified in Local Standard Time (LST). Add 1 hour to adjust for Daylight Saving Time where and when it is observed.

QIKIQTARJUAQ A
NUNAVUT

67°32'48.000" N
64°01'54.000" W
5.50 m
2400577
YVM

Download Data

Hourly Data (October 2013)
Hourly Data Report for October 30, 2013
Temp Definition
°C
Dew Point Temp Definition
°C
Rel Hum Definition
%
Wind Dir Definition
10's deg

Wind Spd Definition
km/h
Visibility Definition
km
Stn Press Definition
kPa
Hmdx Definition


Wind Chill Definition


Weather Definition


TIME
00:00 Legend Double Dagger -3.8 -7.1 78 20 13 16.1 100.47   -9 LegendNANA
01:00 Legend Double Dagger -3.5 -7.1 76 19 8 11.3 100.51   -7 LegendNANA
02:00 Legend Double Dagger -4.8 -6.1 91 20 9 16.1 100.54   -9 LegendNANA
03:00 Legend Double Dagger -5.0 -6.4 90 21 8 16.1 100.59   -9 LegendNANA
04:00 Legend Double Dagger -4.6 -6.7 85 LegendMM 4 16.1 100.60   -6 LegendNANA
05:00 Legend Double Dagger -4.1 -6.9 81 20 5 9.7 100.61   -6 LegendNANA
06:00 Legend Double Dagger -2.9 -6.2 78 33 9 16.1 100.64   -6 LegendNANA
07:00 Legend Double Dagger -2.6 -6.3 76 35 21 11.3 100.69   -9 LegendNANA
08:00 Legend Double Dagger -2.6 -6.1 77 34 18 16.1 100.69   -8 LegendNANA
09:00 Legend Double Dagger -3.1 -5.6 83 31 13 16.1 100.73   -8 LegendNANA
10:00 Legend Double Dagger -2.8 -5.0 85 33 18 16.1 100.74   -8 LegendNANA
11:00 Legend Double Dagger -2.9 -4.6 88 36 13 3.2 100.76   -8 LegendNANA
12:00 Legend Double Dagger -3.5 -4.5 93 LegendMM 4 3.2 100.77   -5 LegendNANA
13:00 Legend Double Dagger -4.8 -5.9 92 18 8 11.3 100.78   -8 LegendNANA
14:00 Legend Double Dagger -3.2 -4.6 90 34 18 16.1 100.81   -9 LegendNANA
15:00 Legend Double Dagger -2.6 -4.6 86 33 21 16.1 100.84   -9 LegendNANA
16:00 Legend Double Dagger -4.5 -8.1 76 5 11 16.1 100.88   -9 LegendNANA
17:00 Legend Double Dagger -2.8 -5.2 84 35 15 16.1 100.92   -8 LegendNANA
18:00 Legend Double Dagger -3.7 -5.4 88 11 9 16.1 100.94   -7 LegendNANA
19:00 Legend Double Dagger -3.2 -7.4 73 5 22 16.1 100.94   -10 LegendNANA
20:00 Legend Double Dagger -2.9 -7.4 71 3 24 16.1 100.93   -10 LegendNANA
21:00 Legend Double Dagger -3.1 -7.6 71 3 35 16.1 100.94   -11 LegendNANA
22:00 Legend Double Dagger -3.1 -7.8 70 2 33 16.1 100.96   -11 LegendNANA
23:00 Legend Double Dagger -3.1 -8.3 67 2 33 16.1 100.97   -11 LegendNANA

Notes on Data Quality.

Legend

  • E = Estimated
  • M = Missing
  • NA = Not Available
  • ‡ = Partner data that is not subject to review by the National Climate Archives
Date modified: